GW7499 Weather Reports


Display with metric or nautical units.
time (UTC)temp
F
wind
direction
speed
MPH
gust
MPH
rain 1hr
in
rain 24hr
in
rain mn
in
humidity
%
barometer
mb
20260905095904 70 359 1.0 1.0 0.00 0.00 0.00 79 1010.1
20260905095359 70 3 2.0 2.0 0.00 0.00 0.00 82 1009.9
20260905094859 70 3 1.0 2.0 0.00 0.00 0.00 83 1010.1
20260905094354 69 3 0.0 1.0 0.00 0.00 0.00 86 1010.2
20260905093853 69 3 0.0 0.0 0.00 0.00 0.00 88 1010.1
20260905093349 69 3 0.0 0.0 0.00 0.00 0.00 89 1010.1
20260905092845 70 3 0.0 0.0 0.00 0.00 0.00 89 1009.9
20260905092344 70 3 0.0 0.0 0.00 0.00 0.00 87 1010.0
20260905091839 70 3 0.0 0.0 0.00 0.00 0.00 89 1010.1
20260905091339 70 3 0.0 0.0 0.00 0.00 0.00 85 1010.1
20260905090838 70 3 0.0 1.0 0.00 0.00 0.00 86 1010.0
20260905090335 70 3 0.0 0.0 0.00 0.00 0.00 90 1010.2
20260905085833 70 3 0.0 0.0 0.00 0.00 0.00 90 1010.0
20260905085328 70 3 0.0 0.0 0.00 0.00 0.00 88 1010.1
20260905084824 70 3 0.0 0.0 0.00 0.00 0.00 89 1010.2
20260905084323 71 3 0.0 0.0 0.00 0.00 0.00 90 1010.0
20260905083818 71 3 0.0 0.0 0.00 0.00 0.00 84 1009.7
20260905083314 71 3 0.0 0.0 0.00 0.00 0.00 84 1009.8
20260905082809 71 3 0.0 1.0 0.00 0.00 0.00 81 1009.9
20260905082307 71 3 0.0 0.0 0.00 0.00 0.00 83 1009.8
20260905081805 70 3 1.0 1.0 0.00 0.00 0.00 83 1010.0
20260905081301 70 3 1.0 1.0 0.00 0.00 0.00 85 1009.9
20260905080800 70 3 0.0 0.0 0.00 0.00 0.00 87 1010.1
20260905080300 70 3 0.0 0.0 0.00 0.00 0.00 87 1010.1
20260905075758 70 3 0.0 0.0 0.00 0.00 0.00 86 1010.1
20260905075258 70 3 0.0 0.0 0.00 0.00 0.00 86 1010.0
20260905074757 70 3 0.0 0.0 0.00 0.00 0.00 89 1010.0
20260905074254 70 3 0.0 0.0 0.00 0.00 0.00 86 1010.1
20260905073749 70 3 0.0 0.0 0.00 0.00 0.00 87 1010.0
20260905073244 70 3 0.0 0.0 0.00 0.00 0.00 87 1009.9
20260905072743 70 3 0.0 0.0 0.00 0.00 0.00 84 1009.9
20260905072239 70 3 0.0 0.0 0.00 0.00 0.00 85 1010.2
20260905071736 70 3 0.0 0.0 0.00 0.00 0.00 85 1010.1
20260905071231 71 3 0.0 0.0 0.00 0.00 0.00 85 1010.0
20260905070726 71 3 0.0 0.0 0.00 0.00 0.00 85 1010.3
20260905070222 71 3 0.0 0.0 0.00 0.00 0.00 83 1010.1
20260905065720 71 3 0.0 0.0 0.00 0.00 0.00 81 1010.2
20260905065215 71 3 0.0 0.0 0.00 0.00 0.00 80 1010.1
20260905064710 72 3 0.0 0.0 0.00 0.00 0.00 84 1010.2
20260905064206 72 3 0.0 0.0 0.00 0.00 0.00 85 1010.0
20260905063704 72 3 0.0 1.0 0.00 0.00 0.00 78 1010.3
20260905063201 72 3 0.0 0.0 0.00 0.00 0.00 80 1010.3
20260905062657 72 3 0.0 1.0 0.00 0.00 0.00 82 1010.1
20260905062156 72 3 1.0 1.0 0.00 0.00 0.00 78 1010.3
20260905061655 72 3 0.0 0.0 0.00 0.00 0.00 78 1010.4
20260905061150 72 3 1.0 1.0 0.00 0.00 0.00 77 1010.3
20260905060645 73 3 1.0 1.0 0.00 0.00 0.00 78 1010.5
20260905060142 73 3 1.0 1.0 0.00 0.00 0.00 76 1010.4
20260905055640 73 4 0.0 1.0 0.00 0.00 0.00 77 1010.3
20260905055136 73 4 1.0 1.0 0.00 0.00 0.00 76 1010.4
20260905054631 73 4 1.0 2.0 0.00 0.00 0.00 76 1010.6
20260905054127 73 4 1.0 1.0 0.00 0.00 0.00 75 1010.6
20260905053626 73 4 0.0 1.0 0.00 0.00 0.00 77 1010.5
20260905053122 72 6 1.0 1.0 0.00 0.00 0.00 80 1010.7
20260905052621 72 6 0.0 0.0 0.00 0.00 0.00 81 1010.8
20260905052115 72 6 0.0 1.0 0.00 0.00 0.00 83 1010.5
20260905051611 71 7 0.0 0.0 0.00 0.00 0.00 87 1010.7
20260905051108 71 6 0.0 0.0 0.00 0.00 0.00 88 1010.6
20260905050604 71 7 0.0 0.0 0.00 0.00 0.00 89 1010.6
20260905050101 71 6 0.0 0.0 0.00 0.00 0.00 89 1010.8
20260905045600 71 6 0.0 0.0 0.00 0.00 0.00 88 1010.7
20260905045056 71 7 0.0 0.0 0.00 0.00 0.00 90 1010.9
20260905044555 71 7 0.0 0.0 0.00 0.00 0.00 87 1010.8
20260905044050 72 6 0.0 0.0 0.00 0.00 0.00 89 1010.8
20260905043549 72 7 0.0 0.0 0.00 0.00 0.00 89 1010.9
20260905043045 73 6 0.0 0.0 0.00 0.00 0.00 86 1010.9
20260905042543 73 6 0.0 0.0 0.00 0.00 0.00 84 1010.8
20260905042039 73 6 0.0 0.0 0.00 0.00 0.00 84 1011.1
20260905041534 74 6 0.0 1.0 0.00 0.00 0.00 78 1011.1
20260905041030 74 6 1.0 1.0 0.00 0.00 0.00 77 1011.1
20260905040529 74 6 0.0 0.0 0.00 0.00 0.00 77 1011.3
20260905040028 73 7 0.0 0.0 0.00 0.02 0.02 77 1010.9
20260905035523 73 7 0.0 0.0 0.00 0.02 0.02 79 1011.1
20260905035020 73 7 0.0 0.0 0.00 0.02 0.02 85 1011.1
20260905034515 73 7 0.0 0.0 0.00 0.02 0.02 84 1011.2
20260905034015 73 7 0.0 0.0 0.00 0.02 0.02 88 1011.2
20260905033515 73 7 0.0 0.0 0.00 0.02 0.02 86 1011.0
20260905033011 73 7 0.0 0.0 0.00 0.02 0.02 84 1011.0
20260905032505 73 7 0.0 0.0 0.00 0.02 0.02 86 1010.9
20260905032000 73 7 0.0 0.0 0.00 0.02 0.02 87 1011.1
20260905031456 73 7 0.0 0.0 0.00 0.02 0.02 86 1010.9
20260905030951 73 7 0.0 0.0 0.00 0.02 0.02 87 1011.0
20260905030446 73 7 0.0 0.0 0.00 0.02 0.02 87 1011.0
20260905025945 73 7 0.0 1.0 0.00 0.02 0.02 88 1010.9
20260905025441 73 7 0.0 0.0 0.00 0.02 0.02 87 1010.7
20260905024937 74 7 0.0 0.0 0.00 0.02 0.02 87 1010.8
20260905024437 74 6 0.0 0.0 0.00 0.02 0.02 89 1010.8
20260905023933 75 7 0.0 0.0 0.00 0.02 0.02 87 1010.8
20260905023428 75 6 0.0 0.0 0.00 0.02 0.02 82 1010.8
20260905022927 75 7 0.0 0.0 0.00 0.02 0.02 79 1010.8
20260905022422 76 7 0.0 0.0 0.00 0.02 0.02 78 1010.9
20260905021918 76 7 0.0 0.0 0.00 0.02 0.02 79 1010.7
20260905021418 76 7 0.0 0.0 0.00 0.02 0.02 79 1010.6
20260905020913 76 7 0.0 0.0 0.00 0.02 0.02 80 1010.8
20260905020412 76 7 0.0 1.0 0.00 0.02 0.02 80 1011.0
20260905015912 76 7 0.0 1.0 0.00 0.02 0.02 81 1011.0
20260905015410 76 7 0.0 0.0 0.00 0.02 0.02 80 1010.9
20260905014910 76 7 0.0 1.0 0.00 0.02 0.02 82 1010.9
20260905014406 76 7 0.0 0.0 0.00 0.02 0.02 83 1011.1
20260905013901 76 7 0.0 0.0 0.00 0.02 0.02 81 1011.2
20260905013357 76 7 0.0 0.0 0.00 0.02 0.02 84 1010.7
20260905012858 76 7 0.0 0.0 0.00 0.02 0.02 85 1010.9
20260905012353 76 7 0.0 0.0 0.00 0.02 0.02 85 1011.0
20260905011850 76 7 0.0 0.0 0.00 0.02 0.02 88 1010.8
20260905011345 76 6 0.0 0.0 0.00 0.02 0.02 86 1011.2
20260905010840 76 7 0.0 0.0 0.00 0.02 0.02 85 1011.1
20260905010335 76 7 0.0 0.0 0.00 0.02 0.02 84 1011.2
20260905005832 76 7 0.0 0.0 0.00 0.02 0.02 85 1010.9
20260905005327 76 7 0.0 0.0 0.00 0.02 0.02 84 1010.9
20260905004822 76 7 0.0 0.0 0.00 0.02 0.02 85 1010.7
20260905004316 76 7 0.0 0.0 0.00 0.02 0.02 86 1010.7
20260905003812 75 7 0.0 1.0 0.00 0.02 0.02 86 1010.8
20260905003308 75 7 1.0 1.0 0.00 0.02 0.02 90 1010.7
20260905002808 75 7 0.0 1.0 0.00 0.02 0.02 89 1010.7
20260905002306 75 7 0.0 1.0 0.00 0.02 0.02 89 1010.5
20260905001758 76 7 0.0 0.0 0.00 0.02 0.02 87 1010.5
20260905001257 76 6 0.0 0.0 0.00 0.02 0.02 86 1010.5
20260905000753 76 7 0.0 0.0 0.00 0.02 0.02 86 1010.4
20260905000248 77 7 0.0 0.0 0.00 0.02 0.02 85 1010.5
20260904235743 77 7 0.0 0.0 0.00 0.02 0.02 83 1010.5
20260904235238 77 7 0.0 0.0 0.00 0.02 0.02 83 1010.5
20260904234733 77 7 0.0 0.0 0.00 0.02 0.02 83 1010.5
20260904234228 77 7 0.0 0.0 0.00 0.02 0.02 82 1010.7
20260904233724 77 6 0.0 0.0 0.00 0.02 0.02 80 1010.6
20260904233220 77 7 0.0 0.0 0.00 0.02 0.02 81 1010.4
20260904232716 78 7 0.0 0.0 0.00 0.02 0.02 79 1010.5
20260904232212 78 7 0.0 0.0 0.00 0.02 0.02 80 1010.6
20260904231708 78 7 0.0 0.0 0.00 0.02 0.02 77 1010.5
20260904231203 78 7 0.0 0.0 0.00 0.02 0.02 77 1010.5
20260904230702 79 7 0.0 0.0 0.00 0.02 0.02 77 1010.4
20260904230157 80 7 0.0 0.0 0.00 0.02 0.02 74 1010.6
20260904225655 80 6 0.0 0.0 0.00 0.02 0.02 72 1010.6
20260904225150 81 6 0.0 0.0 0.00 0.02 0.02 71 1010.5
20260904224644 81 7 0.0 1.0 0.00 0.02 0.02 69 1010.6
20260904224144 82 6 0.0 2.0 0.00 0.02 0.02 68 1010.6
20260904223644 82 7 1.0 1.0 0.00 0.02 0.02 66 1010.5
20260904223140 83 34 1.0 2.0 0.00 0.02 0.02 65 1010.5
20260904222636 83 28 2.0 3.0 0.00 0.02 0.02 64 1010.7
20260904222131 83 49 1.0 2.0 0.00 0.02 0.02 64 1010.6
20260904221630 83 355 2.0 6.0 0.00 0.02 0.02 63 1010.8
20260904221125 82 30 2.0 7.0 0.00 0.02 0.02 64 1010.7
20260904220620 82 50 1.0 1.0 0.00 0.02 0.02 69 1010.5
20260904220116 82 51 1.0 1.0 0.00 0.02 0.02 68 1010.4
20260904215615 82 85 0.0 0.0 0.00 0.02 0.02 69 1010.6
20260904215112 82 144 0.0 1.0 0.00 0.02 0.02 67 1010.7
20260904214606 82 145 1.0 2.0 0.00 0.02 0.02 66 1010.6
20260904214102 83 28 0.0 1.0 0.00 0.02 0.02 66 1010.5
20260904213600 83 28 0.0 2.0 0.00 0.02 0.02 65 1010.3
20260904213057 83 26 0.0 1.0 0.00 0.02 0.02 65 1010.4
20260904212556 83 31 0.0 1.0 0.00 0.02 0.02 64 1010.4
20260904212052 83 31 1.0 3.0 0.00 0.02 0.02 64 1010.2
20260904211551 83 57 1.0 2.0 0.00 0.02 0.02 63 1010.7
20260904211047 85 36 1.0 3.0 0.00 0.02 0.02 61 1010.5
20260904210546 86 26 3.0 8.0 0.00 0.02 0.02 59 1010.4
20260904210042 85 19 1.0 7.0 0.00 0.02 0.02 60 1010.4
20260904205542 85 347 2.0 3.0 0.00 0.02 0.02 60 1010.5
20260904205039 85 57 1.0 2.0 0.00 0.02 0.02 59 1010.6
20260904204535 86 343 2.0 7.0 0.00 0.02 0.02 58 1010.7
20260904204031 85 11 1.0 2.0 0.00 0.02 0.02 60 1010.4
20260904203526 86 305 2.0 3.0 0.00 0.02 0.02 57 1010.7
20260904203023 86 70 1.0 1.0 0.00 0.02 0.02 57 1010.7
20260904202518 86 25 4.0 6.0 0.00 0.02 0.02 57 1010.6
20260904202014 86 357 2.0 3.0 0.00 0.02 0.02 60 1010.8
20260904201509 85 40 1.0 4.0 0.00 0.02 0.02 60 1010.7
20260904201005 84 45 1.0 2.0 0.00 0.02 0.02 61 1010.7
20260904200503 85 35 0.0 3.0 0.00 0.02 0.02 60 1011.2
20260904195958 86 24 2.0 10.0 0.00 0.02 0.02 57 1011.2
20260904195456 86 47 1.0 1.0 0.00 0.02 0.02 60 1011.1
20260904194955 86 356 2.0 3.0 0.00 0.02 0.02 59 1010.8
20260904194451 86 336 2.0 4.0 0.00 0.02 0.02 57 1011.1
20260904193946 87 193 2.0 3.0 0.00 0.02 0.02 58 1011.0
20260904193441 86 306 0.0 1.0 0.00 0.02 0.02 58 1011.2
20260904192936 86 84 1.0 4.0 0.00 0.02 0.02 58 1011.3
20260904192431 87 316 2.0 3.0 0.00 0.02 0.02 56 1011.3
20260904191927 87 76 1.0 3.0 0.00 0.02 0.02 58 1011.4
20260904191424 87 326 3.0 6.0 0.00 0.02 0.02 57 1011.4
20260904190921 86 6 3.0 7.0 0.00 0.02 0.02 56 1011.4
20260904190420 86 317 2.0 4.0 0.00 0.02 0.02 58 1011.2
20260904185917 87 249 4.0 6.0 0.00 0.02 0.02 56 1011.5
20260904185413 86 134 1.0 4.0 0.00 0.02 0.02 63 1011.8
20260904184913 86 14 2.0 3.0 0.00 0.02 0.02 60 1011.5
20260904184407 85 326 2.0 4.0 0.00 0.02 0.02 61 1011.7
20260904183902 84 294 2.0 3.0 0.00 0.02 0.02 64 1011.7
20260904183357 84 28 3.0 8.0 0.00 0.02 0.02 64 1011.8
20260904182853 84 58 1.0 3.0 0.00 0.02 0.02 65 1011.7
20260904182348 84 31 1.0 2.0 0.00 0.02 0.02 63 1011.6
20260904181843 85 20 2.0 3.0 0.00 0.02 0.02 63 1011.7
20260904181344 84 5 3.0 4.0 0.00 0.02 0.02 63 1011.8
20260904180839 84 335 3.0 4.0 0.00 0.02 0.02 62 1011.7
20260904180335 84 321 4.0 6.0 0.00 0.02 0.02 62 1012.0
20260904175833 85 14 2.0 6.0 0.00 0.02 0.02 63 1011.9
20260904175334 85 212 3.0 4.0 0.00 0.02 0.02 61 1011.9
20260904174832 85 11 4.0 6.0 0.00 0.02 0.02 61 1011.8
20260904174329 84 305 2.0 4.0 0.00 0.02 0.02 62 1011.7
20260904173824 84 63 1.0 3.0 0.00 0.02 0.02 65 1012.1
20260904173320 84 29 1.0 1.0 0.00 0.02 0.02 64 1011.8
20260904172816 84 15 2.0 3.0 0.00 0.02 0.02 63 1011.7
20260904172314 85 345 0.0 2.0 0.00 0.02 0.02 61 1011.9
20260904171810 85 22 2.0 4.0 0.00 0.02 0.02 61 1011.8
20260904171305 85 37 3.0 4.0 0.00 0.02 0.02 60 1011.6
20260904170801 86 356 2.0 3.0 0.00 0.02 0.02 61 1011.7
20260904170257 85 7 3.0 4.0 0.00 0.02 0.02 58 1011.8
20260904165756 85 321 4.0 6.0 0.00 0.02 0.02 62 1012.0
20260904165250 85 337 2.0 4.0 0.00 0.02 0.02 61 1011.7
20260904164750 85 341 3.0 6.0 0.00 0.02 0.02 61 1011.8
20260904164246 85 319 4.0 7.0 0.00 0.02 0.02 60 1011.6
20260904163742 86 79 1.0 1.0 0.00 0.02 0.02 60 1011.7
20260904163237 86 22 3.0 4.0 0.00 0.02 0.02 59 1011.8
20260904162735 86 2 4.0 4.0 0.00 0.02 0.02 57 1011.6
20260904162231 86 53 1.0 3.0 0.00 0.02 0.02 60 1011.8
20260904161727 86 320 2.0 3.0 0.00 0.02 0.02 60 1011.8
20260904161226 85 68 2.0 3.0 0.00 0.02 0.02 60 1012.0
20260904160722 85 345 3.0 6.0 0.00 0.02 0.02 60 1011.9
20260904160218 86 321 2.0 3.0 0.00 0.02 0.02 58 1011.8
20260904155717 86 324 4.0 6.0 0.00 0.02 0.02 60 1012.1
20260904155217 85 25 1.0 4.0 0.00 0.02 0.02 66 1011.9
20260904154715 86 339 2.0 3.0 0.00 0.02 0.02 62 1011.9
20260904154210 85 34 1.0 2.0 0.00 0.02 0.02 66 1011.9
20260904153706 85 343 7.0 9.0 0.00 0.02 0.02 61 1012.0
20260904153201 85 54 3.0 9.0 0.00 0.02 0.02 62 1011.9
20260904152658 85 113 2.0 6.0 0.00 0.02 0.02 61 1012.2
20260904152153 84 5 4.0 9.0 0.00 0.02 0.02 62 1012.4
20260904151648 84 312 6.0 8.0 0.00 0.02 0.02 62 1012.1
20260904151146 83 103 2.0 7.0 0.00 0.02 0.02 63 1012.4
20260904150642 83 336 5.0 8.0 0.00 0.02 0.02 63 1012.3
20260904150138 84 314 4.0 8.0 0.00 0.02 0.02 68 1012.3
20260904145636 84 87 2.0 4.0 0.00 0.02 0.02 65 1012.2
20260904145131 84 310 4.0 6.0 0.00 0.02 0.02 66 1012.1
20260904144627 83 46 1.0 6.0 0.00 0.02 0.02 68 1012.1
20260904144122 83 340 3.0 6.0 0.00 0.02 0.02 67 1012.1
20260904143618 83 288 4.0 8.0 0.00 0.02 0.02 67 1012.2
20260904143115 82 341 4.0 7.0 0.00 0.02 0.02 68 1012.3
20260904142611 82 6 7.0 9.0 0.00 0.02 0.02 68 1012.3
20260904142111 82 345 4.0 9.0 0.00 0.02 0.02 70 1012.0
20260904141606 82 28 2.0 10.0 0.00 0.02 0.02 70 1012.1
20260904141102 82 20 4.0 8.0 0.00 0.02 0.02 71 1012.1
20260904140558 82 104 3.0 7.0 0.00 0.02 0.02 72 1012.1
20260904140057 82 313 4.0 8.0 0.00 0.02 0.02 72 1012.4
20260904135557 81 48 2.0 4.0 0.00 0.02 0.02 77 1012.1
20260904135053 81 335 3.0 6.0 0.00 0.02 0.02 79 1011.9
20260904134549 81 6 2.0 4.0 0.00 0.02 0.02 80 1012.2
20260904134042 80 8 3.0 4.0 0.00 0.02 0.02 81 1011.9
20260904133537 80 39 2.0 8.0 0.00 0.02 0.02 81 1012.2
20260904133034 80 5 3.0 7.0 0.00 0.02 0.02 82 1012.0
20260904132534 79 36 2.0 4.0 0.00 0.02 0.02 83 1012.2
20260904132033 79 322 2.0 4.0 0.00 0.02 0.02 85 1011.8
20260904131533 79 333 3.0 7.0 0.00 0.02 0.02 86 1011.9
20260904131029 79 41 3.0 6.0 0.00 0.02 0.02 85 1011.9
20260904130528 78 352 2.0 3.0 0.00 0.02 0.02 86 1012.0
20260904130023 78 13 4.0 8.0 0.00 0.02 0.02 87 1012.0
20260904125520 77 8 2.0 7.0 0.00 0.02 0.02 89 1012.1
20260904125014 77 358 4.0 6.0 0.00 0.02 0.02 90 1012.0
20260904124510 77 20 4.0 8.0 0.00 0.02 0.02 90 1012.0
20260904124006 76 309 3.0 4.0 0.00 0.02 0.02 90 1012.3
20260904123505 76 320 4.0 7.0 0.00 0.02 0.02 91 1011.9
20260904123001 76 353 4.0 4.0 0.00 0.02 0.02 92 1012.0
20260904122455 76 358 5.0 6.0 0.00 0.02 0.02 93 1011.8
20260904121949 75 6 4.0 7.0 0.00 0.02 0.02 93 1011.8
20260904121445 75 358 3.0 6.0 0.00 0.02 0.02 94 1011.8
20260904120942 75 3 4.0 6.0 0.00 0.02 0.02 95 1011.7
20260904120437 75 353 2.0 3.0 0.00 0.02 0.02 95 1011.5
20260904115932 74 34 1.0 1.0 0.00 0.02 0.02 96 1011.6
20260904115428 74 21 2.0 2.0 0.00 0.02 0.02 96 1011.5
20260904114928 74 2 2.0 3.0 0.00 0.02 0.02 96 1011.8
20260904114427 74 39 1.0 2.0 0.00 0.02 0.02 96 1012.0
20260904113923 74 40 1.0 2.0 0.00 0.02 0.02 96 1011.5
20260904113423 74 2 2.0 2.0 0.00 0.02 0.02 96 1011.6
20260904112922 74 28 2.0 2.0 0.00 0.02 0.02 96 1011.6
20260904112418 74 40 1.0 2.0 0.00 0.02 0.02 96 1011.6
20260904111913 74 359 2.0 4.0 0.00 0.02 0.02 96 1011.2
20260904111409 74 316 3.0 3.0 0.00 0.02 0.02 97 1011.3
20260904110905 74 48 1.0 3.0 0.00 0.02 0.02 97 1011.3
20260904110403 74 48 1.0 1.0 0.00 0.02 0.02 98 1011.1
20260904105858 74 52 0.0 1.0 0.00 0.02 0.02 98 1011.0
20260904105353 74 65 0.0 0.0 0.00 0.02 0.02 98 1011.0
20260904104848 74 42 1.0 1.0 0.00 0.02 0.02 98 1010.6
20260904104343 74 64 0.0 1.0 0.00 0.02 0.02 99 1010.9
20260904103841 74 0 0.0 0.0 0.00 0.02 0.02 98 1011.0
20260904103341 74 86 1.0 1.0 0.00 0.02 0.02 98 1010.9
20260904102837 74 86 0.0 0.0 0.00 0.02 0.02 99 1010.8
20260904102332 74 87 0.0 1.0 0.00 0.02 0.02 99 1010.9
20260904101828 74 135 0.0 1.0 0.00 0.02 0.02 99 1011.1
20260904101324 74 135 0.0 0.0 0.00 0.02 0.02 98 1010.8
20260904100819 74 135 1.0 1.0 0.00 0.02 0.02 98 1010.9
20260904100315 74 136 0.0 0.0 0.00 0.02 0.02 98 1010.8